TimePST,TemperatureF,Dew PointF,Humidity,Sea Level PressureIn,VisibilityMPH,Wind Direction,Wind SpeedMPH,Gust SpeedMPH,PrecipitationIn,Events,Conditions,WindDirDegrees,DateUTC
12:55 AM,26.1,24.1,92,30.42,10.0,Calm,Calm,-,N/A,,Clear,0,2013-02-14 08:55:00
1:55 AM,23.0,21.9,96,30.43,6.0,Calm,Calm,-,N/A,,Clear,0,2013-02-14 09:55:00
2:55 AM,23.0,21.9,96,30.42,7.0,Calm,Calm,-,N/A,,Clear,0,2013-02-14 10:55:00
3:55 AM,21.9,21.0,96,30.43,5.0,Calm,Calm,-,N/A,,Clear,0,2013-02-14 11:55:00
4:55 AM,21.0,19.0,92,30.44,10.0,Calm,Calm,-,N/A,,Clear,0,2013-02-14 12:55:00
5:55 AM,19.9,18.0,92,30.49,6.0,Calm,Calm,-,N/A,,Clear,0,2013-02-14 13:55:00
6:55 AM,19.0,17.1,92,30.51,5.0,Calm,Calm,-,N/A,,Clear,0,2013-02-14 14:55:00
7:25 AM,19.4,17.6,93,30.43,2.5,North,3.5,-,N/A,,Clear,10,2013-02-14 15:25:00
7:43 AM,21.2,19.4,93,30.44,4.0,Calm,Calm,-,N/A,,Clear,0,2013-02-14 15:43:00
7:55 AM,23.0,21.0,92,30.52,4.0,Calm,Calm,-,N/A,,Clear,0,2013-02-14 15:55:00
8:55 AM,30.0,28.0,92,30.51,10.0,SW,3.5,-,N/A,,Clear,220,2013-02-14 16:55:00
9:55 AM,36.0,30.0,79,30.51,10.0,Calm,Calm,-,N/A,,Clear,0,2013-02-14 17:55:00
10:55 AM,39.9,30.9,70,30.50,10.0,SSW,3.5,-,N/A,,Clear,210,2013-02-14 18:55:00
11:55 AM,45.0,30.0,56,30.48,10.0,Calm,Calm,-,N/A,,Clear,0,2013-02-14 19:55:00
12:55 PM,48.0,28.9,48,30.46,10.0,North,6.9,-,N/A,,Clear,360,2013-02-14 20:55:00
1:55 PM,50.0,27.0,41,30.44,10.0,North,5.8,-,N/A,,Clear,10,2013-02-14 21:55:00
2:55 PM,50.0,27.0,41,30.43,10.0,NNE,11.5,-,N/A,,Clear,30,2013-02-14 22:55:00
3:55 PM,48.9,27.0,43,30.44,10.0,North,10.4,-,N/A,,Clear,10,2013-02-14 23:55:00
4:55 PM,46.9,28.0,48,30.45,10.0,NNE,5.8,-,N/A,,Clear,20,2013-02-15 00:55:00
5:55 PM,41.0,27.0,57,30.48,10.0,NNE,3.5,-,N/A,,Clear,20,2013-02-15 01:55:00
6:55 PM,37.9,27.0,65,30.49,10.0,NNE,5.8,-,N/A,,Clear,30,2013-02-15 02:55:00
7:55 PM,35.1,26.1,70,30.50,10.0,North,3.5,-,N/A,,Clear,10,2013-02-15 03:55:00
8:55 PM,34.0,26.1,73,30.48,10.0,North,4.6,-,N/A,,Clear,10,2013-02-15 04:55:00
9:55 PM,28.9,25.0,85,30.49,10.0,Calm,Calm,-,N/A,,Clear,0,2013-02-15 05:55:00
10:55 PM,28.0,24.1,85,30.49,5.0,Calm,Calm,-,N/A,,Clear,0,2013-02-15 06:55:00
11:55 PM,28.9,25.0,85,30.48,6.0,Calm,Calm,-,N/A,,Clear,0,2013-02-15 07:55:00